VK3CG Weather Reports


Display with metric or nautical units.
time (UTC)temp
F
wind
direction
speed
MPH
gust
MPH
rain 1hr
in
rain 24hr
in
rain mn
in
humidity
%
barometer
mb
20260510021526 55 209 3.0 8.0 0.00 0.01 0.01 62 1041.9
20260510020024 54 223 1.0 9.0 0.00 0.01 0.01 65 1042.0
20260510014519 54 124 2.0 8.0 0.00 0.01 0.01 70 1042.1
20260510013016 52 140 1.0 8.0 0.00 0.01 0.01 74 1042.4
20260510011525 51 150 2.0 9.0 0.00 0.01 0.01 76 1042.7
20260510010010 51 147 2.0 8.0 0.00 0.01 0.01 76 1042.7
20260510004512 50 153 2.0 6.0 0.00 0.01 0.01 76 1042.5
20260510003008 50 158 1.0 6.0 0.00 0.01 0.01 76 1042.6
20260510001506 50 167 1.0 7.0 0.00 0.01 0.01 76 1042.6
20260510000013 50 186 1.0 4.0 0.00 0.01 0.01 77 1042.6
20260509234504 50 183 1.0 7.0 0.00 0.01 0.01 77 1042.6
20260509233002 50 160 2.0 7.0 0.00 0.01 0.01 77 1042.5
20260509231500 50 156 2.0 5.0 0.01 0.01 0.01 77 1042.4
20260509230100 50 148 1.0 5.0 0.01 0.01 0.01 76 1042.4
20260509224558 50 191 0.0 8.0 0.01 0.01 0.01 76 1042.2
20260509223102 50 164 0.0 5.0 0.01 0.01 0.01 76 1042.2
20260509221552 50 203 0.0 3.0 0.00 0.00 0.00 76 1042.1
20260509220049 49 177 0.0 3.0 0.00 0.00 0.00 76 1041.8
20260509214546 49 147 1.0 4.0 0.00 0.00 0.00 76 1041.5
20260509213044 49 142 1.0 4.0 0.00 0.00 0.00 76 1041.3
20260509211544 49 185 0.0 4.0 0.00 0.00 0.00 76 1041.1
20260509210049 49 159 1.0 6.0 0.00 0.00 0.00 76 1040.9
20260509204549 49 186 1.0 7.0 0.00 0.00 0.00 76 1040.8
20260509203037 49 158 2.0 6.0 0.00 0.00 0.00 76 1040.8
20260509201538 50 128 1.0 5.0 0.00 0.00 0.00 76 1040.7
20260509200036 50 123 1.0 8.0 0.00 0.00 0.00 76 1040.5
20260509194536 50 152 0.0 3.0 0.00 0.00 0.00 76 1040.4
20260509193031 50 123 3.0 9.0 0.00 0.00 0.00 76 1040.1
20260509191529 50 213 1.0 8.0 0.00 0.00 0.00 76 1040.0
20260509190032 50 205 0.0 6.0 0.00 0.01 0.00 76 1039.9
20260509184541 50 203 1.0 5.0 0.00 0.01 0.00 76 1039.8
20260509183029 50 201 1.0 5.0 0.00 0.01 0.00 76 1039.8
20260509181525 50 164 1.0 5.0 0.00 0.01 0.00 75 1039.8
20260509180024 50 119 0.0 4.0 0.00 0.01 0.00 76 1039.7
20260509174523 51 205 1.0 5.0 0.00 0.01 0.00 75 1039.7
20260509173021 51 175 1.0 9.0 0.00 0.01 0.00 75 1039.7
20260509171521 51 148 0.0 5.0 0.00 0.01 0.00 75 1039.7
20260509170020 51 182 2.0 6.0 0.00 0.01 0.00 75 1039.7
20260509164518 51 180 1.0 7.0 0.00 0.01 0.00 75 1039.8
20260509163022 51 150 0.0 6.0 0.00 0.01 0.00 75 1039.8
20260509161516 51 129 1.0 6.0 0.00 0.01 0.00 75 1039.7
20260509160016 51 194 1.0 4.0 0.00 0.01 0.00 74 1039.9
20260509154516 51 181 2.0 5.0 0.00 0.01 0.00 74 1039.9
20260509153029 51 150 2.0 4.0 0.00 0.01 0.00 74 1040.0
20260509151514 51 207 2.0 5.0 0.00 0.01 0.00 74 1040.0
20260509150016 51 180 1.0 4.0 0.00 0.01 0.00 73 1040.0
20260509144524 51 169 2.0 8.0 0.00 0.01 0.00 73 1039.9
20260509143013 51 197 2.0 8.0 0.00 0.01 0.00 73 1040.0
20260509141515 51 193 3.0 8.0 0.00 0.01 0.00 72 1039.8
20260509140008 51 159 1.0 6.0 0.00 0.01 0.01 72 1040.0
20260509134506 51 233 2.0 8.0 0.00 0.01 0.01 72 1039.8
20260509133013 51 159 3.0 8.0 0.00 0.01 0.01 71 1040.0
20260509131506 51 192 2.0 6.0 0.00 0.01 0.01 71 1040.2
20260509130005 51 108 2.0 6.0 0.00 0.01 0.01 70 1040.2
20260509124506 51 160 2.0 9.0 0.00 0.01 0.01 70 1040.1
20260509123003 51 188 2.0 5.0 0.00 0.01 0.01 69 1040.4
20260509121508 50 96 2.0 7.0 0.00 0.01 0.01 69 1040.2
20260509120003 50 184 0.0 3.0 0.00 0.01 0.01 69 1040.2
20260509114501 50 184 0.0 3.0 0.00 0.01 0.01 68 1040.0
20260509113106 50 184 1.0 4.0 0.00 0.01 0.01 68 1039.9
20260509111607 50 186 2.0 9.0 0.00 0.01 0.01 68 1039.9
20260509110106 50 125 2.0 8.0 0.00 0.01 0.01 67 1039.9
20260509104558 50 176 0.0 4.0 0.00 0.01 0.01 67 1039.8
20260509103105 51 177 0.0 0.0 0.00 0.01 0.01 67 1039.8
20260509101623 51 177 0.0 1.0 0.00 0.01 0.01 67 1039.9
20260509100058 51 177 1.0 4.0 0.00 0.01 0.01 66 1039.8
20260509094603 51 177 0.0 4.0 0.00 0.01 0.01 66 1039.9
20260509093105 51 148 0.0 0.0 0.00 0.01 0.01 65 1039.8
20260509091602 51 148 0.0 0.0 0.00 0.01 0.01 65 1039.7
20260509084553 52 148 0.0 0.0 0.00 0.01 0.01 64 1039.6
20260509083051 53 147 0.0 0.0 0.00 0.01 0.01 64 1039.4
20260509081553 53 147 0.0 4.0 0.00 0.01 0.01 64 1039.2
20260509080049 53 163 0.0 5.0 0.00 0.01 0.01 63 1039.0
20260509074550 53 163 3.0 6.0 0.00 0.01 0.01 63 1038.8
20260509073056 53 164 0.0 3.0 0.00 0.01 0.01 63 1038.7
20260509071554 53 164 0.0 3.0 0.00 0.01 0.01 63 1038.4
20260509070048 54 164 1.0 3.0 0.00 0.01 0.01 63 1038.4
20260509064558 54 206 0.0 6.0 0.00 0.01 0.01 63 1038.3
20260509063046 54 210 2.0 7.0 0.00 0.01 0.01 63 1038.3
20260509061544 54 176 1.0 5.0 0.00 0.01 0.01 63 1038.2
20260509060044 54 78 2.0 7.0 0.00 0.01 0.01 63 1038.2
20260509054555 54 188 1.0 8.0 0.00 0.01 0.01 64 1038.2
20260509053047 54 148 2.0 8.0 0.00 0.01 0.01 64 1038.2
20260509051542 54 181 1.0 8.0 0.00 0.01 0.01 64 1038.1
20260509050040 54 161 1.0 8.0 0.00 0.01 0.01 65 1038.1
20260509044539 54 194 2.0 8.0 0.00 0.01 0.01 65 1038.2
20260509043038 54 242 2.0 6.0 0.00 0.01 0.01 66 1038.2
20260509041606 54 116 2.0 10.0 0.00 0.01 0.01 67 1038.1
20260509040038 53 196 1.0 6.0 0.00 0.01 0.01 69 1038.1
20260509034534 53 146 1.0 7.0 0.00 0.01 0.01 70 1038.2
20260509033036 53 214 2.0 6.0 0.00 0.01 0.01 72 1038.3
20260509031537 53 166 2.0 8.0 0.00 0.01 0.01 74 1038.2
20260509030033 53 207 2.0 8.0 0.00 0.01 0.01 75 1038.3
20260509024531 53 120 3.0 8.0 0.00 0.01 0.01 75 1038.5
20260509023030 53 215 2.0 7.0 0.00 0.01 0.01 76 1038.6